TimeEST,TemperatureF,Dew PointF,Humidity,Sea Level PressureIn,VisibilityMPH,Wind Direction,Wind SpeedMPH,Gust SpeedMPH,PrecipitationIn,Events,Conditions,WindDirDegrees,DateUTC
12:54 AM,46.9,36.0,66,29.92,10.0,West,5.8,-,N/A,,Clear,260,2012-12-19 05:54:00
1:54 AM,45.0,36.0,71,29.95,10.0,WSW,3.5,-,N/A,,Clear,240,2012-12-19 06:54:00
2:54 AM,42.1,36.0,79,29.95,10.0,WSW,3.5,-,N/A,,Clear,240,2012-12-19 07:54:00
3:54 AM,41.0,35.1,79,29.96,10.0,SW,4.6,-,N/A,,Clear,230,2012-12-19 08:54:00
4:54 AM,39.9,35.1,83,29.99,10.0,WSW,3.5,-,N/A,,Clear,250,2012-12-19 09:54:00
5:54 AM,37.0,35.1,93,30.00,10.0,Calm,Calm,-,N/A,,Clear,0,2012-12-19 10:54:00
6:54 AM,36.0,34.0,93,30.01,10.0,Calm,Calm,-,N/A,,Clear,0,2012-12-19 11:54:00
7:54 AM,41.0,35.1,79,30.01,10.0,SW,5.8,-,N/A,,Clear,230,2012-12-19 12:54:00
8:54 AM,48.0,37.0,66,30.04,10.0,West,4.6,-,N/A,,Clear,270,2012-12-19 13:54:00
9:54 AM,52.0,37.0,57,30.06,10.0,West,6.9,-,N/A,,Clear,270,2012-12-19 14:54:00
10:54 AM,57.0,37.0,47,30.05,10.0,West,6.9,-,N/A,,Clear,260,2012-12-19 15:54:00
11:54 AM,60.1,39.0,46,30.04,-9999.0,West,8.1,-,N/A,,Clear,260,2012-12-19 16:54:00
12:54 PM,-9999,-9999,N/A,30.02,10.0,WNW,8.1,-,N/A,,Clear,290,2012-12-19 17:54:00
1:54 PM,64.0,37.9,38,30.01,10.0,NW,9.2,-,N/A,,Clear,310,2012-12-19 18:54:00
2:54 PM,64.9,39.9,40,30.00,10.0,Variable,6.9,-,N/A,,Clear,0,2012-12-19 19:54:00
3:54 PM,63.0,39.9,43,30.01,10.0,West,5.8,-,N/A,,Clear,270,2012-12-19 20:54:00
4:54 PM,60.1,39.9,47,30.03,10.0,Calm,Calm,-,N/A,,Clear,0,2012-12-19 21:54:00
5:54 PM,50.0,44.1,80,30.06,10.0,SSW,3.5,-,N/A,,Clear,210,2012-12-19 22:54:00
6:54 PM,48.0,44.1,86,30.08,10.0,Calm,Calm,-,N/A,,Clear,0,2012-12-19 23:54:00
7:54 PM,45.0,42.1,90,30.10,10.0,Calm,Calm,-,N/A,,Clear,0,2012-12-20 00:54:00
8:54 PM,43.0,41.0,93,30.11,10.0,Calm,Calm,-,N/A,,Clear,0,2012-12-20 01:54:00
9:54 PM,43.0,39.9,89,30.14,10.0,Calm,Calm,-,N/A,,Clear,0,2012-12-20 02:54:00
10:54 PM,42.1,39.9,92,30.14,10.0,Calm,Calm,-,N/A,,Clear,0,2012-12-20 03:54:00
11:54 PM,41.0,39.0,93,30.14,10.0,Calm,Calm,-,N/A,,Clear,0,2012-12-20 04:54:00